Location: Newark
(25.0000°N, 73.5000°E)
Time: 03:47:44
(UTC+00:00)

Altair - Pass Details

Date: 04 March 2021
Orbit: 1501 x 1683 km, 47.2° (Epoch: 12 April)

Event Time Altitude Azimuth Distance (km) Brightness Sun altitude
Rises 12:23:29 0° 231° (SW) 4,631 11.3 9.5°
Reaches altitude 10° 12:26:30 10° 233° (SW) 3,645 10.9 8.8°
Maximum altitude 12:35:37 74° 318° (NW) 1,556 7.9 6.8°
Drops below altitude 10° 12:44:54 10° 43° (NE) 3,696 9.1 4.7°
Sets 12:48:00 0° 46° (NE) 4,699 9.5 4.0°
